Location: Unspecified
(0.0000°N, 0.0000°E)
Time: 19:23:54
(UTC+00:00)

AO-73 - Visible Passes

Search period start: 21 July 2018 00:00
Search period end: 31 July 2018 00:00
Orbit: 582 x 665 km, 97.6° (Epoch: 21 July)

Date Brightness Start Highest point End Pass type
(mag) Time Alt. Az. Time Alt. Az. Time Alt. Az.
21 Jul ? 19:35:32 19° S 19:38:25 59° WSW 19:42:29 10° NNW visible
22 Jul ? 19:54:09 16° SSW 19:56:48 30° WSW 20:00:26 10° NW visible
23 Jul ? 18:36:25 10° ESE 18:39:13 18° E 18:41:59 10° NE visible
23 Jul ? 20:12:46 11° SW 20:15:10 17° WSW 20:17:49 10° WNW visible
24 Jul ? 18:54:08 11° SE 18:57:36 32° E 19:01:17 10° NNE visible
25 Jul ? 19:12:45 16° SSE 19:16:00 63° ENE 19:20:03 10° N visible
26 Jul ? 19:31:22 18° S 19:34:23 66° WSW 19:38:27 10° NNW visible
27 Jul ? 19:49:58 16° SSW 19:52:46 33° WSW 19:56:29 10° NW visible
28 Jul ? 18:32:41 10° ESE 18:35:10 16° ENE 18:37:39 10° NE visible
28 Jul ? 20:08:35 11° SW 20:11:08 18° WSW 20:13:59 10° WNW visible
29 Jul ? 18:49:58 10° SE 18:53:33 28° ENE 18:57:06 10° NNE visible
30 Jul ? 19:08:33 14° SSE 19:11:56 55° ENE 19:15:57 10° N visible
